• In United Kingdom
  • List of Countries
  • For 7 days
  • Water Temperature
  • Satellite Maps
  • Weather Map
  • Weather Widgets
  • user-avatar
    Login

    Hourly Weather Granada

    Today, 21 August, Tuesday

    Time Temperature Precipitation Wind Pressure Humidity
    00:00 +23°C° 0 mm 1 mps 703 mmHg 70%
    01:00 +23°C° 0 mm 1 mps 703 mmHg 71%
    02:00 +23°C° 0 mm 1 mps 703 mmHg 72%
    03:00 +22°C° 0 mm 1 mps 703 mmHg 73%
    04:00 +22°C° 0 mm 1 mps 703 mmHg 73%
    05:00 +22°C° 0 mm 1 mps 703 mmHg 72%
    06:00 +22°C° 0 mm 1 mps 703 mmHg 71%
    07:00 +24°C° 0 mm 1 mps 703 mmHg 61%
    08:00 +26°C° 0 mm 1 mps 703 mmHg 51%
    09:00 +27°C° 0 mm 1 mps 703 mmHg 41%
    10:00 +28°C° 0 mm 2 mps 704 mmHg 38%
    11:00 +29°C° 0 mm 2 mps 704 mmHg 34%
    12:00 +31°C° 0 mm 2 mps 704 mmHg 31%
    13:00 +31°C° 0 mm 2 mps 703 mmHg 31%
    14:00 +31°C° 0 mm 3 mps 703 mmHg 31%
    15:00 +31°C° 0 mm 3 mps 703 mmHg 32%
    16:00 +31°C° 0.1 mm 3 mps 703 mmHg 34%
    17:00 +30°C° 0.1 mm 3 mps 703 mmHg 36%
    18:00 +29°C° 0.1 mm 3 mps 702 mmHg 39%
    19:00 +28°C° 0 mm 2 mps 703 mmHg 45%
    20:00 +27°C° 0 mm 2 mps 703 mmHg 51%
    21:00 +25°C° 0 mm 1 mps 703 mmHg 56%
    22:00 +25°C° 0 mm 1 mps 703 mmHg 58%
    23:00 +24°C° 0 mm 1 mps 703 mmHg 59%

    Tomorrow, 22 August, Wednesday

    Time Temperature Precipitation Wind Pressure Humidity
    00:00 +24°C° 0 mm 1 mps 703 mmHg 61%
    01:00 +23°C° 0 mm 1 mps 702 mmHg 62%
    02:00 +23°C° 0 mm 1 mps 702 mmHg 63%
    03:00 +22°C° 0 mm 1 mps 702 mmHg 64%
    04:00 +22°C° 0 mm 1 mps 702 mmHg 64%
    05:00 +22°C° 0 mm 1 mps 702 mmHg 64%
    06:00 +22°C° 0 mm 1 mps 702 mmHg 63%
    07:00 +24°C° 0 mm 1 mps 702 mmHg 54%
    08:00 +26°C° 0 mm 1 mps 703 mmHg 45%
    09:00 +28°C° 0 mm 1 mps 703 mmHg 36%
    10:00 +29°C° 0 mm 1 mps 703 mmHg 32%
    11:00 +30°C° 0 mm 2 mps 704 mmHg 29%
    12:00 +31°C° 0 mm 2 mps 704 mmHg 26%
    13:00 +31°C° 0 mm 2 mps 703 mmHg 26%
    14:00 +32°C° 0 mm 2 mps 703 mmHg 26%
    15:00 +32°C° 0 mm 2 mps 703 mmHg 26%
    16:00 +31°C° 0 mm 2 mps 703 mmHg 29%
    17:00 +31°C° 0 mm 2 mps 703 mmHg 31%
    18:00 +30°C° 0 mm 2 mps 703 mmHg 34%
    19:00 +29°C° 0 mm 2 mps 703 mmHg 40%
    20:00 +27°C° 0 mm 1 mps 703 mmHg 46%
    21:00 +26°C° 0 mm 1 mps 703 mmHg 51%
    22:00 +25°C° 0 mm 1 mps 703 mmHg 53%
    23:00 +25°C° 0 mm 1 mps 703 mmHg 54%

    Day after tomorrow, 23 August, Thursday

    Time Temperature Precipitation Wind Pressure Humidity
    00:00 +24°C° 0 mm 1 mps 703 mmHg 56%
    01:00 +24°C° 0 mm 1 mps 703 mmHg 58%
    02:00 +23°C° 0 mm 1 mps 703 mmHg 59%
    03:00 +23°C° 0 mm 1 mps 702 mmHg 61%
    04:00 +23°C° 0 mm 1 mps 702 mmHg 60%
    05:00 +23°C° 0 mm 1 mps 702 mmHg 58%
    06:00 +22°C° 0 mm 1 mps 702 mmHg 57%
    07:00 +25°C° 0 mm 1 mps 702 mmHg 49%
    08:00 +27°C° 0 mm 1 mps 703 mmHg 42%
    09:00 +27°C° 0 mm 0 mps 703 mmHg 34%
    10:00 +30°C° 0 mm 1 mps 704 mmHg 33%
    11:00 +31°C° 0 mm 1 mps 704 mmHg 31%
    12:00 +32°C° 0 mm 2 mps 704 mmHg 29%
    13:00 +32°C° 0 mm 2 mps 703 mmHg 29%
    14:00 +32°C° 0 mm 2 mps 703 mmHg 29%
    15:00 +32°C° 0 mm 2 mps 703 mmHg 29%
    16:00 +32°C° 0 mm 2 mps 703 mmHg 31%
    17:00 +31°C° 0 mm 2 mps 703 mmHg 33%
    18:00 +31°C° 0 mm 1 mps 703 mmHg 34%
    19:00 +29°C° 0 mm 1 mps 703 mmHg 39%
    20:00 +28°C° 0 mm 1 mps 703 mmHg 43%
    21:00 +27°C° 0 mm 1 mps 703 mmHg 47%
    22:00 +26°C° 0 mm 1 mps 703 mmHg 47%
    23:00 +26°C° 0 mm 1 mps 703 mmHg 47%

    24 August, Friday

    Time Temperature Precipitation Wind Pressure Humidity
    00:00 +25°C° 0 mm 1 mps 703 mmHg 48%
    01:00 +25°C° 0 mm 1 mps 703 mmHg 46%
    02:00 +25°C° 0 mm 1 mps 702 mmHg 44%
    03:00 +24°C° 0 mm 1 mps 702 mmHg 43%
    04:00 +24°C° 0 mm 1 mps 702 mmHg 42%
    05:00 +24°C° 0 mm 1 mps 702 mmHg 42%
    06:00 +24°C° 0 mm 1 mps 702 mmHg 42%
    07:00 +26°C° 0 mm 1 mps 702 mmHg 38%
    08:00 +28°C° 0 mm 1 mps 703 mmHg 34%
    09:00 +30°C° 0 mm 1 mps 703 mmHg 29%
    10:00 +31°C° 0 mm 1 mps 703 mmHg 29%
    11:00 +32°C° 0 mm 2 mps 703 mmHg 28%
    12:00 +34°C° 0 mm 2 mps 703 mmHg 27%
    13:00 +34°C° 0 mm 2 mps 703 mmHg 27%
    14:00 +34°C° 0 mm 2 mps 703 mmHg 28%
    15:00 +34°C° 0 mm 2 mps 702 mmHg 28%
    16:00 +32°C° 0 mm 2 mps 702 mmHg 30%
    17:00 +32°C° 0 mm 2 mps 702 mmHg 31%
    18:00 +32°C° 0 mm 2 mps 702 mmHg 32%
    19:00 +30°C° 0 mm 2 mps 702 mmHg 35%
    20:00 +29°C° 0 mm 1 mps 702 mmHg 39%
    21:00 +28°C° 0 mm 1 mps 702 mmHg 42%
    22:00 +27°C° 0 mm 1 mps 702 mmHg 43%
    23:00 +27°C° 0 mm 1 mps 702 mmHg 44%

    25 August, Saturday

    Time Temperature Precipitation Wind Pressure Humidity
    00:00 +27°C° 0 mm 1 mps 702 mmHg 46%
    01:00 +26°C° 0 mm 1 mps 701 mmHg 47%
    02:00 +25°C° 0 mm 1 mps 701 mmHg 48%
    03:00 +25°C° 0 mm 1 mps 701 mmHg 49%
    04:00 +25°C° 0 mm 1 mps 701 mmHg 49%
    05:00 +24°C° 0 mm 1 mps 701 mmHg 49%
    06:00 +24°C° 0 mm 1 mps 700 mmHg 49%
    07:00 +26°C° 0 mm 1 mps 701 mmHg 42%
    08:00 +29°C° 0 mm 1 mps 701 mmHg 36%
    09:00 +31°C° 0 mm 1 mps 702 mmHg 30%
    10:00 +32°C° 0 mm 1 mps 702 mmHg 27%
    11:00 +34°C° 0 mm 2 mps 701 mmHg 25%
    12:00 +35°C° 0 mm 2 mps 701 mmHg 22%
    13:00 +35°C° 0 mm 2 mps 701 mmHg 21%
    14:00 +36°C° 0 mm 3 mps 701 mmHg 20%
    15:00 +36°C° 0 mm 3 mps 700 mmHg 19%
    16:00 +36°C° 0 mm 3 mps 700 mmHg 21%
    17:00 +35°C° 0 mm 2 mps 700 mmHg 22%
    18:00 +34°C° 0 mm 2 mps 700 mmHg 24%
    19:00 +32°C° 0 mm 2 mps 700 mmHg 27%
    20:00 +30°C° 0 mm 1 mps 700 mmHg 30%
    21:00 +28°C° 0 mm 1 mps 700 mmHg 33%
    22:00 +28°C° 0 mm 1 mps 700 mmHg 34%
    23:00 +27°C° 0 mm 1 mps 700 mmHg 36%

    26 August, Sunday

    Time Temperature Precipitation Wind Pressure Humidity
    00:00 +26°C° 0 mm 1 mps 700 mmHg 37%
    01:00 +26°C° 0 mm 1 mps 699 mmHg 37%
    02:00 +26°C° 0 mm 1 mps 699 mmHg 36%
    03:00 +26°C° 0 mm 1 mps 699 mmHg 35%
    04:00 +26°C° 0.1 mm 1 mps 699 mmHg 36%
    05:00 +26°C° 0.1 mm 1 mps 699 mmHg 37%
    06:00 +25°C° 0.1 mm 2 mps 699 mmHg 38%
    07:00 +28°C° 0.2 mm 2 mps 700 mmHg 35%
    08:00 +30°C° 0.2 mm 2 mps 700 mmHg 31%
    09:00 +32°C° 0.2 mm 2 mps 701 mmHg 28%
    10:00 +34°C° 0.4 mm 2 mps 701 mmHg 27%
    11:00 +35°C° 0.4 mm 3 mps 701 mmHg 26%
    12:00 +36°C° 0.4 mm 3 mps 701 mmHg 25%
    13:00 +37°C° 0 mm 3 mps 701 mmHg 25%
    14:00 +37°C° 0 mm 3 mps 700 mmHg 25%
    15:00 +38°C° 0 mm 4 mps 700 mmHg 24%
    16:00 +37°C° 0 mm 3 mps 700 mmHg 27%
    17:00 +36°C° 0 mm 3 mps 700 mmHg 29%
    18:00 +35°C° 0 mm 3 mps 700 mmHg 32%
    19:00 +32°C° 0 mm 2 mps 700 mmHg 39%
    20:00 +30°C° 0 mm 2 mps 700 mmHg 46%
    21:00 +28°C° 0 mm 1 mps 700 mmHg 53%
    22:00 +27°C° 0.1 mm 1 mps 700 mmHg 57%
    23:00 +27°C° 0.1 mm 2 mps 700 mmHg 61%
    Show more